Other Public Products
Issued by NWS Grand Forks, ND

Home | Current Version | Previous Version | Graphics & Text | Print | Product List | Glossary On
Versions: 1 2 3 4 5 6 7 8 9 10 11 12 13 14 15 16 17 18 19 20 21 22 23 24 25 26 27 28 29 30 31 32 33 34 35 36 37 38 39 40 41 42 43 44 45 46 47 48 49 50
000
FPUS83 KFGF 281310
OPUFGF
PRAIRIE TO PINES WEATHER ROUNDUP
NATIONAL WEATHER SERVICE EASTERN NORTH DAKOTA/GRAND FORKS ND
700 AM CST WED JAN 28 2015

 **SATELLITE DATA USED TO AUGMENT SKY COVER AT AUTOMATED STATIONS**
 *****  WEATHER ACROSS EASTERN NORTH DAKOTA  *****

CITY           SKY/WX    TMP DP  RH WIND       PRES   REMARKS
GRAND FORKS    CLOUDY    34  32  92 S13G20    29.80R WCI  25
GRAND FORKS AF CLOUDY    33  32  97 S8        29.78F FOG
GRAND CITY NWS NOT AVBL
BUXTON         NOT AVBL
DEVILS LAKE    CLOUDY    30  30 100 CALM      29.74R VSB 1/2
FARGO          CLOUDY    34  31  88 S16G28    29.80F WCI  24
WAHPETON ARPT  CLOUDY    32  30  93 S15       29.82S WCI  22
$$

 *****  WEATHER ACROSS CENTRAL AND WESTERN NORTH DAKOTA  *****

CITY           SKY/WX    TMP DP  RH WIND       PRES   REMARKS
JAMESTOWN      FOG       31  30  96 S7        29.74R VSB 1/4 WCI  24
BISMARCK       MOCLDY    28  27  96 CALM      29.73R
MINOT          FOG       27  25  92 N6        29.74S VSB 1/4 WCI  20
MINOT AFB      FRZ DRZL  28  28 100 N5        29.75R VSB 1/2 WCI  22
GARRISON         N/A     30  28  92 N5        29.72S
WILLISTON      CLEAR     29  27  92 CALM      29.74S
DICKINSON      MOCLDY    36  30  79 W9        29.73R
HETTINGER      MOCLDY    37  31  78 NW10      29.76S
$$

 *****  OTHER OBSERVATIONS NORTHEAST NORTH DAKOTA  *****

CITY           SKY/WX    TMP DP  RH WIND       PRES   REMARKS
WALHALLA       FOG       32  32 100 E6        29.79F VSB 1/2
LANGDON        FOG       32  30  93 E9        29.75F VSB 1/4 WCI  24
CAVALIER       FOG       32  32 100 E5        29.80F VSB 1/2
GRAFTON        NOT AVBL
CANDO          FOG       32  32 100 NE5       29.75F VSB 3/4
FORT TOTTEN      N/A     30  30 100 SE2       29.95S
ROLLA          FOG       30  30 100 NE9       29.75S VSB 1/4 WCI  22
RUGBY          FOG       30  30 100 E10       29.75R VSB 1/2 WCI  21
 ***** THE ABOVE OBSERVATIONS ARE NON NWS ARE NOT QUALITY
        CONTROLLED AND MAY MIS-REPORT RAIN FOR SNOW...
$$

 *****  OTHER OBSERVATIONS SOUTHEAST NORTH DAKOTA *****

CITY           SKY/WX    TMP DP  RH WIND       PRES   REMARKS
COOPERSTOWN    NOT AVBL
VALLEY CITY    FOG       30  30 100 S9        29.76R VSB 1/4 WCI  22
OAKES            N/A     27  27 100 E9        29.75F FOG     WCI  17
GWINNER        CLOUDY    32  32 100 CALM      29.78S VSB 1/4
BUFFALO        NOT AVBL
WYNDMERE         N/A     32  34 100 S12         N/A  WCI  23
 ***** THE ABOVE OBSERVATIONS ARE NON NWS ARE NOT QUALITY
       CONTROLLED AND MAY MIS-REPORT RAIN FOR SNOW...
$$

  *****  WEATHER ACROSS NORTHERN MINNESOTA  *****

CITY           SKY/WX    TMP DP  RH WIND       PRES   REMARKS
FLAG ISLAND    CLOUDY    28  27  93 E7        29.89S FOG     WCI  21
WARROAD        CLOUDY    30  27  86 E6        29.87F FOG     WCI  24
ROSEAU         CLOUDY    30  27  86 SE6       29.85F FOG     WCI  24
HALLOCK        CLOUDY    32  30  93 E7        29.81F FOG
THF RVR FALLS  CLOUDY    34  30  86 SE7       29.82R
HALSTAD          N/A     33  30  88 S17         N/A  WCI  22
FOSSTON        CLOUDY    30  28  93 SE9       29.81F WCI  22
BAUDETTE       CLOUDY    28  25  88 SE7       29.88S WCI  21
WASKISH        CLOUDY    30  28  93 SE8       29.88F FOG     WCI  23
CROOKSTON      CLOUDY    34  30  86 S9        29.82S
$$
  *****  WEATHER ACROSS CENTRAL AND WEST MINNESOTA  *****

CITY           SKY/WX    TMP DP  RH WIND       PRES   REMARKS
BEMIDJI        CLOUDY    30  28  94 SE9       29.86F WCI  22
PARK RAPIDS    CLOUDY    31  29  92 SE14      29.86F FOG     WCI  21
WADENA         CLOUDY    30  28  93 SE10        N/A  FOG     WCI  21
DETROIT LAKES  CLOUDY    32  32 100 S14       29.83F WCI  22
MOORHEAD       CLOUDY    34  34 100 S20       29.81F WCI  22
FERGUS FALLS   CLOUDY    32  30  93 S18       29.86F WCI  20
ELBOW LAKE     CLOUDY    32  30  94 SE18G25   29.83F WCI  20
MORRIS MN      CLOUDY    32  30  93 SE21G26   29.84S FOG     WCI  20
STAPLES        CLOUDY    28  28 100 SE8       29.89S FOG     WCI  20
WHEATON        PTCLDY    28  28 100 SE14G21   29.83F WCI  17
$$
  *****  WEATHER ELSEWHERE ACROSS MINNESOTA  *****

CITY           SKY/WX    TMP DP  RH WIND       PRES   REMARKS
DULUTH         CLOUDY    23  19  85 SE10      29.98F WCI  12
INTRNTL FALLS  CLOUDY    27  23  85 SE8       29.92S WCI  19
ELY            CLOUDY    25  21  86 S7        29.96F WCI  17
CLOQUET        CLOUDY    23  21  93 SE7       29.98F WCI  15
BRAINERD       CLOUDY    29  27  92 S9        29.92F FOG     WCI  20
HIBBING        CLOUDY    25  21  85 SE10      29.95F WCI  15
ALEXANDRIA     CLOUDY    31  29  92 S18       29.87S FOG     WCI  19
SAINT CLOUD    CLOUDY    30  27  88 SE15      29.94F FOG     WCI  19
MINNEAPOLIS    CLOUDY    29  25  85 SE16      30.01F WCI  17
$$

  *****  WEATHER ACROSS SOUTH DAKOTA  *****

CITY           SKY/WX    TMP DP  RH WIND       PRES   REMARKS
SIOUX FALLS    MOCLDY    33  29  85 SE14      29.80F WCI  23
BROOKINGS      NOT AVBL
WATERTOWN      PTCLDY    33  30  88 S10       29.75S WCI  25
HURON          MOCLDY    33  30  88 S10       29.72S WCI  25
SISSETON         N/A     32  32 100 S15       29.79F WCI  22
ABERDEEN       MOCLDY    32  29  88 SE8       29.74F WCI  25
MITCHELL         N/A     34  31  88 MISG      29.73F
PIERRE         CLOUDY    27  27 100 W9        29.72R WCI  18
MOBRIDGE       CLOUDY    31  28  89 N9        29.68F WCI  23
RAPID CITY     PTCLDY    42  28  57 NW12      29.79R
$$

  *****  SOME WEATHER IN NEARBY STATES *****

CITY           SKY/WX    TMP DP  RH WIND       PRES   REMARKS
GLASGOW MT     PTCLDY    36  29  75 N12       29.84R
GREAT FALLS MT MOCLDY    37  25  61 W10       30.04R
CHEYENNE WY    MOCLDY    43  30  60 W20       30.07R
SCOTTSBLUFF NE   N/A    N/A N/A N/A MISG      29.95R
OMAHA NE       PTCLDY    34  29  82 SE14      29.89F WCI  25
DES MOINES IA  CLOUDY    31  27  85 SE13G21   30.02F FOG     WCI  21
DAVENPORT IA   MOCLDY    27  21  78 S15       30.21R WCI  15
CHICAGO IL     MOCLDY    20  16  84 S6        30.28R WCI  12
EAU CLAIRE WI  CLOUDY    25  20  81 SE13      30.09F WCI  14
LA CROSSE WI   CLOUDY    27  22  81 S10       30.13F WCI  17
$$

  *****  SOME NATIONAL WEATHER *****

CITY           SKY/WX    TMP DP  RH WIND       PRES   REMARKS
LA GUARDIA NY  PTCLDY    19   2  47 NW18G24   30.01R WCI   4
RALEIGH NC     CLEAR     26  13  57 CALM      30.18R
ATLANTA GA     CLEAR     32  24  72 NW8       30.23R WCI  25
NEW ORLEANS LA CLEAR     50  37  61 E9        30.25R
OKLAHOMA CITY  PTCLDY    46  36  68 SE8       30.01R
ALBUQUERQUE NM MOCLDY    37  30  75 S3        30.25S
SALT LAKE CITY CLOUDY    40  37  89 SW3       30.22R
LOS ANGELES CA CLOUDY    57  48  72 CALM      30.13F
BOISE ID       FOG       33  33 100 CALM      30.27R VSB 1/4
SEATTLE WA     CLOUDY    45  43  93 N5        30.34S
$$

*** WEATHER ACROSS MANITOBA...SASKATCHEWAN AND ONTARIO ***
                ***ONTARIO***

CITY           SKY/WX    TMP DP  RH WIND       PRES   REMARKS
GERALDTON      FLURRIES  23  21  93 SW3       30.06S
THUNDER BAY    CLOUDY    27  25  93 E5        30.08S WCI  21
SIOUX LOOKOUT  FLURRIES  27  25  93 SE3       29.97S
TORONTO        CLEAR      9   5  85 NW6       30.27R WCI  -1
BIG TROUT LK   MOCLDY    -8 -11  84 N5        30.17R WCI -19
PICKLE LAKE    FOG       23  21  93 E2        30.01S VSB 1/4
DRYDEN         CLOUDY    25  25 100 E5        29.94F WCI  19
KENORA         CLOUDY    27  25  93 SE7       29.90F WCI  19
$$
                *** MANITOBA***

CITY           SKY/WX    TMP DP  RH WIND       PRES   REMARKS
BRANDON        FOG       25  23  93 NE16G23   29.83R VSB 3/8 WCI  12
DAUPHIN        LGT SNOW  18  16  93 N15G21    29.94S WCI   3
ISLAND LAKE    FLURRIES   5   1  85 NE6       30.13S WCI  -6
PILOT MOUND      N/A     30  28  93 NE7         N/A  WCI  23
THE PAS        CLOUDY     1  -2  85 NE9       30.12F WCI -14
THOMPSON       PTCLDY   -13 -22  64 NE7       30.25R WCI -29
WINNIPEG       FRZ DRZL  28  28 100 E10       29.86F FOG     WCI  19
LYNN LAKE      CLOUDY   -13 -20  70 NE2       30.21R
CHURCHILL      CRYSTALS -17 -24  70 NW22      30.26R BLWGSNOWWCI -45
GILLAM         CLEAR    -20 -27  69 NW7       30.26S WCI -37
$$
                ***SASKATCHEWAN***

CITY           SKY/WX    TMP DP  RH WIND       PRES   REMARKS
ESTEVAN        FOG       28  28 100 E9        29.78R VSB 3/4 WCI  20
KINDERSLEY     FOG       27  27 100 NW8       30.01R VSB 1   WCI  18
LLOYDMINSTER   FOG       23  23 100 W10G17    29.99  VSB 1/2 WCI  12
PRINCE ALBERT  FLURRIES  12   9  85 E3        30.02R
REGINA         FRZ DRZL  27  27 100 NE12      29.88R FOG     WCI  16
YORKTON        FLURRIES  16  14  93 NE15      29.92R WCI   1


USA.gov is the U.S. government's official web portal to all federal, state and local government web resources and services.